Find KUIPER-00507

NORAD ID: 68887 Int'l Des: 2026-095Z Owner: KUIP Country: US Constellation: amazon-leo operational
LEOCIRCULAR

当前视图

正在加载3D地球...

About KUIPER-00507

KUIPER-00507 (NORAD 68887) is a amazon-leo constellation satellite launched Apr 28, 2026 by KUIP of US. It operates in LEO, CIRCULAR orbit with a mass of 490.00 kg.

关于 KUIPER-00507

正在加载描述...

即将过境

Passes for default location (London). Set your location on the main map for personalized predictions.

高度历史

Loading altitude history...

两行轨道根数

1 68887U 26095Z 26166.50270529 .00023404 00000-0 62462-3 0 9996
2 68887 51.8847 250.2839 0001001 43.7709 316.3357 15.38009670 7478
Epoch: Jun 15, 2026 • Age: 19 hours

当前状态

高度 451.4 km
速度 7.64 km/s
星下点 8.54°N, 113.71°W
发射日期 Apr 28, 2026
运行时间 0.1 years
类型 internet

技术详情

分类 Payload
质量 490.00 kg
干质量 490.00 kg
总质量 490.00 kg
长度 1.80 m
直径 0.70 m
跨度 5.00 m
形状 Box + 2 pan
制造商 KUIP
平台类型 Kuiper
阶段状态 In Orbit
所有者/国家 KUIP/US

Most Searched